,,Stat6,,Stat2,,Stat8,,Stat9,,Stat10,,Wind1,,Wind1,
time,status,PA1M_AVG,status,PR1M_SUM,status,RH1M_AVG,status,SR1M_AVG,status,TA1M_AVG,status,W1dAve1m,status,W1sAve1m,
2008-12-18, 00:00:00,VALID,917.279,VALID,0,VALID,98.1641,VALID,-0.0509425,VALID,20.1873,VALID,145,VALID,0.896621,
2008-12-18, 00:01:00,VALID,917.263,VALID,0,VALID,98.0229,VALID,-0.0679233,VALID,20.2125,VALID,140,VALID,1.93926,
2008-12-18, 00:02:00,VALID,917.24,VALID,0,VALID,97.9517,VALID,0,VALID,20.2382,VALID,144,VALID,2.02871,
2008-12-18, 00:03:00,VALID,917.221,VALID,0,VALID,97.7902,VALID,-0.0849042,VALID,20.2879,VALID,143,VALID,1.12786,
2008-12-18, 00:04:00,VALID,917.197,VALID,0,VALID,97.6732,VALID,-0.0509425,VALID,20.2742,VALID,144,VALID,0.858173,
2008-12-18, 00:05:00,VALID,917.197,VALID,0,VALID,97.7076,VALID,-0.0509425,VALID,20.2417,VALID,131,VALID,1.47986,
2008-12-18, 00:06:00,VALID,917.193,VALID,0,VALID,97.939,VALID,-0.0339617,VALID,20.2257,VALID,135,VALID,2.1339,
2008-12-18, 00:07:00,VALID,917.175,VALID,0,VALID,98.07,VALID,0.0169808,VALID,20.1993,VALID,128,VALID,1.15987,
2008-12-18, 00:08:00,VALID,917.174,VALID,0,VALID,98.2874,VALID,0.0339617,VALID,20.1917,VALID,132,VALID,1.29457,
2008-12-18, 00:09:00,VALID,917.162,VALID,0,VALID,98.3268,VALID,0.0339617,VALID,20.201,VALID,128,VALID,0.963415,
2008-12-18, 00:10:00,VALID,917.142,VALID,0,VALID,98.4108,VALID,0.0849042,VALID,20.1977,VALID,148,VALID,1.75999,
2008-12-18, 00:11:00,VALID,917.114,VALID,0,VALID,98.4565,VALID,0.0169808,VALID,20.1982,VALID,138,VALID,1.399,
2008-12-18, 00:12:00,VALID,917.098,VALID,0,VALID,98.5557,VALID,0.0339617,VALID,20.1855,VALID,142,VALID,0.974219,
2008-12-18, 00:13:00,VALID,917.096,VALID,0,VALID,98.646,VALID,0.0849042,VALID,20.1558,VALID,144,VALID,0.841388,
2008-12-18, 00:14:00,VALID,917.091,VALID,0,VALID,98.8011,VALID,0.0679233,VALID,20.1293,VALID,135,VALID,1.69457,
2008-12-18, 00:15:00,VALID,917.088,VALID,0,VALID,98.9308,VALID,0.0509425,VALID,20.1593,VALID,135,VALID,1.91719,
2008-12-18, 00:16:00,VALID,917.084,VALID,0,VALID,98.8177,VALID,0.0679233,VALID,20.1785,VALID,138,VALID,1.24466,
2008-12-18, 00:17:00,VALID,917.068,VALID,0,VALID,98.7999,VALID,0.0339617,VALID,20.1818,VALID,145,VALID,0.81715,
2008-12-18, 00:18:00,VALID,917.062,VALID,0,VALID,98.6905,VALID,0.0679233,VALID,20.2274,VALID,144,VALID,2.63299,
2008-12-18, 00:19:00,VALID,917.067,VALID,0,VALID,98.295,VALID,0.0509425,VALID,20.2958,VALID,133,VALID,2.30879,
2008-12-18, 00:20:00,VALID,917.06,VALID,0,VALID,97.9568,VALID,0.0849042,VALID,20.3218,VALID,136,VALID,1.52058,
2008-12-18, 00:21:00,VALID,917.041,VALID,0,VALID,97.8907,VALID,0.0339617,VALID,20.3061,VALID,138,VALID,1.59184,
2008-12-18, 00:22:00,VALID,917.027,VALID,0,VALID,98.0293,VALID,0,VALID,20.2572,VALID,143,VALID,1.9717,
2008-12-18, 00:23:00,VALID,917.017,VALID,0,VALID,98.1971,VALID,0.0509425,VALID,20.2309,VALID,139,VALID,1.65752,
2008-12-18, 00:24:00,VALID,916.992,VALID,0,VALID,98.2925,VALID,0.0509425,VALID,20.214,VALID,140,VALID,1.52095,
2008-12-18, 00:25:00,VALID,916.982,VALID,0,VALID,98.1857,VALID,0.0509425,VALID,20.2442,VALID,127,VALID,0.755394,
2008-12-18, 00:26:00,VALID,916.958,VALID,0,VALID,98.1094,VALID,0.0169808,VALID,20.2379,VALID,140,VALID,1.33764,
2008-12-18, 00:27:00,VALID,916.943,VALID,0,VALID,98.2111,VALID,0.101885,VALID,20.2309,VALID,136,VALID,2.98516,
2008-12-18, 00:28:00,VALID,916.899,VALID,0,VALID,97.9733,VALID,0.0339617,VALID,20.2993,VALID,130,VALID,2.09756,
2008-12-18, 00:29:00,VALID,916.886,VALID,0,VALID,97.6694,VALID,0.0169808,VALID,20.3286,VALID,126,VALID,0.903646,
2008-12-18, 00:30:00,VALID,916.866,VALID,0,VALID,97.5931,VALID,0.0509425,VALID,20.2951,VALID,141,VALID,1.81875,
2008-12-18, 00:31:00,VALID,916.859,VALID,0,VALID,97.6999,VALID,0.0849042,VALID,20.2656,VALID,145,VALID,1.07086,
2008-12-18, 00:32:00,VALID,916.844,VALID,0,VALID,97.7444,VALID,0.0679233,VALID,20.2791,VALID,146,VALID,1.12481,
2008-12-18, 00:33:00,VALID,916.829,VALID,0,VALID,97.7126,VALID,0.0679233,VALID,20.2661,VALID,128,VALID,0.665264,
2008-12-18, 00:34:00,VALID,916.8,VALID,0,VALID,97.7228,VALID,0.0849042,VALID,20.2304,VALID,138,VALID,1.12348,
2008-12-18, 00:35:00,VALID,916.782,VALID,0,VALID,97.8958,VALID,0.0169808,VALID,20.2145,VALID,150,VALID,1.18253,
2008-12-18, 00:36:00,VALID,916.781,VALID,0,VALID,97.9085,VALID,0.0679233,VALID,20.2272,VALID,129,VALID,1.6612,
2008-12-18, 00:37:00,VALID,916.751,VALID,0,VALID,97.8004,VALID,-0.0339617,VALID,20.2414,VALID,146,VALID,1.40563,
2008-12-18, 00:38:00,VALID,916.743,VALID,0,VALID,97.7724,VALID,-0.118866,VALID,20.2425,VALID,135,VALID,1.04353,
2008-12-18, 00:39:00,VALID,916.713,VALID,0,VALID,97.7584,VALID,-0.101885,VALID,20.2462,VALID,126,VALID,1.1657,
2008-12-18, 00:40:00,VALID,916.706,VALID,0,VALID,97.7622,VALID,-0.135847,VALID,20.2495,VALID,156,VALID,1.71934,
2008-12-18, 00:41:00,VALID,916.689,VALID,0,VALID,97.869,VALID,-0.118866,VALID,20.2722,VALID,143,VALID,2.74758,
2008-12-18, 00:42:00,VALID,916.678,VALID,0,VALID,97.6732,VALID,-0.135847,VALID,20.3368,VALID,150,VALID,1.34738,
2008-12-18, 00:43:00,VALID,916.673,VALID,0,VALID,97.4164,VALID,-0.101885,VALID,20.3466,VALID,150,VALID,0.998402,
2008-12-18, 00:44:00,VALID,916.673,VALID,0,VALID,97.4329,VALID,-0.101885,VALID,20.3301,VALID,129,VALID,0.841211,
2008-12-18, 00:45:00,VALID,916.659,VALID,0,VALID,97.4202,VALID,-0.101885,VALID,20.2979,VALID,119,VALID,0.664789,
2008-12-18, 00:46:00,VALID,916.655,VALID,0,VALID,97.6185,VALID,-0.0849042,VALID,20.2654,VALID,157,VALID,1.36626,
2008-12-18, 00:47:00,VALID,916.662,VALID,0,VALID,97.7495,VALID,-0.101885,VALID,20.2719,VALID,136,VALID,0.879297,
2008-12-18, 00:48:00,VALID,916.643,VALID,0,VALID,97.7826,VALID,-0.101885,VALID,20.2719,VALID,146,VALID,1.02418,
2008-12-18, 00:49:00,VALID,916.621,VALID,0,VALID,97.7622,VALID,-0.118866,VALID,20.2719,VALID,142,VALID,0.723684,
2008-12-18, 00:50:00,VALID,916.603,VALID,0,VALID,97.7673,VALID,-0.101885,VALID,20.2784,VALID,135,VALID,0.515443,
2008-12-18, 00:51:00,VALID,916.586,VALID,0,VALID,97.6999,VALID,-0.101885,VALID,20.2657,VALID,123,VALID,0.128405,
2008-12-18, 00:52:00,VALID,916.571,VALID,0,VALID,97.6898,VALID,-0.101885,VALID,20.2492,VALID,131,VALID,0.429688,
2008-12-18, 00:53:00,VALID,916.571,VALID,0,VALID,97.7724,VALID,-0.101885,VALID,20.2495,VALID,140,VALID,0.393229,
2008-12-18, 00:54:00,VALID,916.552,VALID,0,VALID,97.7368,VALID,-0.118866,VALID,20.2395,VALID,132,VALID,0.992374,
2008-12-18, 00:55:00,VALID,916.538,VALID,0,VALID,97.7826,VALID,-0.101885,VALID,20.2362,VALID,133,VALID,0.417039,
2008-12-18, 00:56:00,VALID,916.534,VALID,0,VALID,97.7521,VALID,-0.101885,VALID,20.233,VALID,131,VALID,0.396984,
2008-12-18, 00:57:00,VALID,916.532,VALID,0,VALID,97.8169,VALID,-0.118866,VALID,20.2103,VALID,139,VALID,0.731136,
2008-12-18, 00:58:00,VALID,916.515,VALID,0,VALID,97.8665,VALID,-0.118866,VALID,20.2233,VALID,139,VALID,1.07586,
2008-12-18, 00:59:00,VALID,916.504,VALID,0,VALID,97.6885,VALID,-0.135847,VALID,20.256,VALID,108,VALID,0.0830078,
2008-12-18, 01:00:00,VALID,916.475,VALID,0,VALID,97.5473,VALID,-0.135847,VALID,20.2724,VALID,112,VALID,0.353237,
2008-12-18, 01:01:00,VALID,916.478,VALID,0,VALID,97.4303,VALID,-0.118866,VALID,20.2557,VALID,137,VALID,1.52095,
2008-12-18, 01:02:00,VALID,916.455,VALID,0,VALID,97.4952,VALID,-0.118866,VALID,20.2397,VALID,135,VALID,0.753534,
2008-12-18, 01:03:00,VALID,916.428,VALID,0,VALID,97.56,VALID,-0.118866,VALID,20.2492,VALID,145,VALID,0.931021,
2008-12-18, 01:04:00,VALID,916.41,VALID,0,VALID,97.382,VALID,-0.135847,VALID,20.2917,VALID,122,VALID,0.170898,
2008-12-18, 01:05:00,VALID,916.407,VALID,0,VALID,97.1887,VALID,-0.118866,VALID,20.3014,VALID,145,VALID,0.734375,
2008-12-18, 01:06:00,VALID,916.4,VALID,0,VALID,97.2065,VALID,-0.152827,VALID,20.3109,VALID,156,VALID,0.971591,
2008-12-18, 01:07:00,VALID,916.372,VALID,0,VALID,97.0819,VALID,-0.0849042,VALID,20.3233,VALID,150,VALID,0.255952,
2008-12-18, 01:08:00,VALID,916.366,VALID,0,VALID,97.0679,VALID,-0.0339617,VALID,20.3328,VALID,143,VALID,0.333031,
2008-12-18, 01:09:00,VALID,916.358,VALID,0,VALID,96.9535,VALID,0,VALID,20.3353,VALID,126,VALID,0,
2008-12-18, 01:10:00,VALID,916.36,VALID,0,VALID,96.895,VALID,0,VALID,20.3191,VALID,121,VALID,0.29723,
2008-12-18, 01:11:00,VALID,916.343,VALID,0,VALID,96.909,VALID,-0.0169808,VALID,20.2931,VALID,127,VALID,0.0456731,
2008-12-18, 01:12:00,VALID,916.326,VALID,0,VALID,96.942,VALID,0,VALID,20.2769,VALID,134,VALID,0.185138,
2008-12-18, 01:13:00,VALID,916.289,VALID,0,VALID,96.9319,VALID,-0.0169808,VALID,20.2871,VALID,159,VALID,1.01855,
2008-12-18, 01:14:00,VALID,916.281,VALID,0,VALID,96.8047,VALID,-0.0339617,VALID,20.3064,VALID,148,VALID,0.27798,
2008-12-18, 01:15:00,VALID,916.267,VALID,0,VALID,96.7348,VALID,-0.0169808,VALID,20.3028,VALID,137,VALID,1.0631,
2008-12-18, 01:16:00,VALID,916.25,VALID,0,VALID,96.6712,VALID,-0.0339617,VALID,20.3226,VALID,140,VALID,1.41069,
2008-12-18, 01:17:00,VALID,916.218,VALID,0,VALID,96.6699,VALID,-0.0339617,VALID,20.3093,VALID,135,VALID,0.538504,
2008-12-18, 01:18:00,VALID,916.204,VALID,0,VALID,96.7297,VALID,0.0169808,VALID,20.2701,VALID,139,VALID,0.972842,
2008-12-18, 01:19:00,VALID,916.194,VALID,0,VALID,96.9649,VALID,-0.0169808,VALID,20.2642,VALID,147,VALID,1.16842,
2008-12-18, 01:20:00,VALID,916.185,VALID,0,VALID,96.9649,VALID,0,VALID,20.2607,VALID,117,VALID,0.631392,
2008-12-18, 01:21:00,VALID,916.174,VALID,0,VALID,97.0336,VALID,0,VALID,20.2315,VALID,115,VALID,0.522529,
2008-12-18, 01:22:00,VALID,916.167,VALID,0,VALID,97.2701,VALID,-0.0169808,VALID,20.212,VALID,136,VALID,0.991477,
2008-12-18, 01:23:00,VALID,916.164,VALID,0,VALID,97.4202,VALID,0,VALID,20.2025,VALID,136,VALID,0.935547,
2008-12-18, 01:24:00,VALID,916.154,VALID,0,VALID,97.5473,VALID,-0.0169808,VALID,20.2025,VALID,137,VALID,0.794271,
2008-12-18, 01:25:00,VALID,916.14,VALID,0,VALID,97.5639,VALID,0,VALID,20.1987,VALID,126,VALID,0.872222,
2008-12-18, 01:26:00,VALID,916.139,VALID,0,VALID,97.6096,VALID,0,VALID,20.1987,VALID,137,VALID,0.878736,
2008-12-18, 01:27:00,VALID,916.143,VALID,0,VALID,97.6134,VALID,0.0339617,VALID,20.2377,VALID,142,VALID,1.08557,
2008-12-18, 01:28:00,VALID,916.145,VALID,0,VALID,97.3909,VALID,0,VALID,20.2736,VALID,132,VALID,0.839648,
2008-12-18, 01:29:00,VALID,916.13,VALID,0,VALID,97.246,VALID,-0.0169808,VALID,20.2672,VALID,143,VALID,0.709847,
2008-12-18, 01:30:00,VALID,916.111,VALID,0,VALID,97.1748,VALID,0,VALID,20.2834,VALID,154,VALID,0.731136,
2008-12-18, 01:31:00,VALID,916.094,VALID,0,VALID,96.9827,VALID,-0.0169808,VALID,20.3223,VALID,144,VALID,0.573946,
2008-12-18, 01:32:00,VALID,916.085,VALID,0,VALID,96.8225,VALID,0,VALID,20.3291,VALID,147,VALID,1.03106,
2008-12-18, 01:33:00,VALID,916.075,VALID,0,VALID,96.8696,VALID,0,VALID,20.3321,VALID,140,VALID,1.30611,
2008-12-18, 01:34:00,VALID,916.062,VALID,0,VALID,96.9357,VALID,0,VALID,20.3064,VALID,144,VALID,0.547238,
2008-12-18, 01:35:00,VALID,916.05,VALID,0,VALID,97.0883,VALID,-0.0509425,VALID,20.2931,VALID,136,VALID,1.73652,
2008-12-18, 01:36:00,VALID,916.052,VALID,0,VALID,97.1798,VALID,-0.0339617,VALID,20.2906,VALID,141,VALID,1.4252,
2008-12-18, 01:37:00,VALID,916.059,VALID,0,VALID,97.2447,VALID,-0.0339617,VALID,20.3188,VALID,147,VALID,1.45703,
2008-12-18, 01:38:00,VALID,916.044,VALID,0,VALID,97.1035,VALID,0.0169808,VALID,20.3448,VALID,136,VALID,0.830078,
2008-12-18, 01:39:00,VALID,916.05,VALID,0,VALID,97.0031,VALID,0.0169808,VALID,20.3443,VALID,132,VALID,0.807422,
2008-12-18, 01:40:00,VALID,916.037,VALID,0,VALID,96.9815,VALID,0.0169808,VALID,20.3315,VALID,139,VALID,0.509411,
2008-12-18, 01:41:00,VALID,916.023,VALID,0,VALID,96.9726,VALID,-0.0169808,VALID,20.3121,VALID,140,VALID,0.880394,
2008-12-18, 01:42:00,VALID,916.016,VALID,0,VALID,96.9815,VALID,0,VALID,20.3026,VALID,157,VALID,1.44271,
2008-12-18, 01:43:00,VALID,916.025,VALID,0,VALID,96.9611,VALID,0.0509425,VALID,20.3021,VALID,134,VALID,1.08576,
2008-12-18, 01:44:00,VALID,916,VALID,0,VALID,96.9535,VALID,0,VALID,20.3121,VALID,128,VALID,0.391768,
2008-12-18, 01:45:00,VALID,916,VALID,0,VALID,96.9522,VALID,0.0169808,VALID,20.335,VALID,149,VALID,1.41175,
2008-12-18, 01:46:00,VALID,915.976,VALID,0,VALID,96.9128,VALID,0,VALID,20.3418,VALID,154,VALID,1.24628,
2008-12-18, 01:47:00,VALID,915.96,VALID,0,VALID,97.0539,VALID,0,VALID,20.2964,VALID,160,VALID,1.21168,
2008-12-18, 01:48:00,VALID,915.942,VALID,0,VALID,97.3858,VALID,0,VALID,20.2439,VALID,166,VALID,1.27852,
2008-12-18, 01:49:00,VALID,915.918,VALID,0,VALID,97.7368,VALID,0,VALID,20.2117,VALID,172,VALID,1.71819,
2008-12-18, 01:50:00,VALID,915.928,VALID,0,VALID,97.9008,VALID,0.0169808,VALID,20.1795,VALID,158,VALID,0.625977,
2008-12-18, 01:51:00,VALID,915.901,VALID,0,VALID,98.1361,VALID,0.0169808,VALID,20.1371,VALID,174,VALID,0.985283,
2008-12-18, 01:52:00,VALID,915.923,VALID,0,VALID,98.2747,VALID,0.0169808,VALID,20.1079,VALID,148,VALID,0.626562,
2008-12-18, 01:53:00,VALID,915.903,VALID,0,VALID,98.4985,VALID,0,VALID,20.0914,VALID,144,VALID,1.84319,
2008-12-18, 01:54:00,VALID,915.872,VALID,0,VALID,98.6193,VALID,0.0169808,VALID,20.0884,VALID,143,VALID,1.82199,
2008-12-18, 01:55:00,VALID,915.871,VALID,0,VALID,98.6193,VALID,0,VALID,20.1011,VALID,155,VALID,1.01488,
2008-12-18, 01:56:00,VALID,915.858,VALID,0,VALID,98.6536,VALID,0.0339617,VALID,20.1306,VALID,141,VALID,1.82116,
2008-12-18, 01:57:00,VALID,915.863,VALID,0,VALID,98.4972,VALID,0,VALID,20.1601,VALID,130,VALID,1.15062,
2008-12-18, 01:58:00,VALID,915.848,VALID,0,VALID,98.4184,VALID,0,VALID,20.1795,VALID,153,VALID,1.18136,
2008-12-18, 01:59:00,VALID,915.832,VALID,0,VALID,98.3383,VALID,0.0339617,VALID,20.1755,VALID,158,VALID,0.956555,
2008-12-18, 02:00:00,VALID,915.841,VALID,0,VALID,98.3167,VALID,0,VALID,20.1825,VALID,154,VALID,0.545541,
2008-12-18, 02:01:00,VALID,915.82,VALID,0,VALID,98.3319,VALID,0,VALID,20.1758,VALID,162,VALID,0.811942,
2008-12-18, 02:02:00,VALID,915.822,VALID,0,VALID,98.4044,VALID,-0.0169808,VALID,20.1666,VALID,159,VALID,1.03162,
2008-12-18, 02:03:00,VALID,915.806,VALID,0,VALID,98.4375,VALID,0.0169808,VALID,20.1633,VALID,152,VALID,0.645008,
2008-12-18, 02:04:00,VALID,915.793,VALID,0,VALID,98.5176,VALID,0.0339617,VALID,20.1658,VALID,180,VALID,1.71839,
2008-12-18, 02:05:00,VALID,915.785,VALID,0,VALID,98.4286,VALID,0.0169808,VALID,20.2245,VALID,131,VALID,2.04794,
2008-12-18, 02:06:00,VALID,915.798,VALID,0,VALID,98.075,VALID,0.0169808,VALID,20.2734,VALID,114,VALID,0.593559,
2008-12-18, 02:07:00,VALID,915.801,VALID,0,VALID,97.9225,VALID,0,VALID,20.2731,VALID,135,VALID,0.255208,
2008-12-18, 02:08:00,VALID,915.807,VALID,0,VALID,97.9962,VALID,0,VALID,20.2442,VALID,139,VALID,0.890067,
2008-12-18, 02:09:00,VALID,915.8,VALID,0,VALID,98.1437,VALID,0,VALID,20.2304,VALID,138,VALID,0.831214,
2008-12-18, 02:10:00,VALID,915.78,VALID,0,VALID,98.1463,VALID,0.0169808,VALID,20.2599,VALID,130,VALID,0.372113,
2008-12-18, 02:11:00,VALID,915.767,VALID,0,VALID,98.0178,VALID,0.0169808,VALID,20.2659,VALID,129,VALID,0.527902,
2008-12-18, 02:12:00,VALID,915.753,VALID,0,VALID,97.9288,VALID,0.101885,VALID,20.2923,VALID,152,VALID,0.582589,
2008-12-18, 02:13:00,VALID,915.741,VALID,0,VALID,97.8385,VALID,0,VALID,20.3026,VALID,140,VALID,0.886446,
2008-12-18, 02:14:00,VALID,915.723,VALID,0,VALID,97.808,VALID,0,VALID,20.2993,VALID,139,VALID,0.425977,
2008-12-18, 02:15:00,VALID,915.711,VALID,0,VALID,97.7673,VALID,0,VALID,20.2894,VALID,118,VALID,0.551829,
2008-12-18, 02:16:00,VALID,915.715,VALID,0,VALID,97.8601,VALID,0,VALID,20.2404,VALID,127,VALID,0.885016,
2008-12-18, 02:17:00,VALID,915.721,VALID,0,VALID,98.1056,VALID,0,VALID,20.2304,VALID,123,VALID,0.781432,
2008-12-18, 02:18:00,VALID,915.719,VALID,0,VALID,98.103,VALID,0,VALID,20.2444,VALID,130,VALID,0.108974,
2008-12-18, 02:19:00,VALID,915.721,VALID,0,VALID,98.1386,VALID,0.0509425,VALID,20.2402,VALID,124,VALID,0.213844,
2008-12-18, 02:20:00,VALID,915.754,VALID,0,VALID,98.1259,VALID,0,VALID,20.2372,VALID,143,VALID,0.474201,
2008-12-18, 02:21:00,VALID,915.767,VALID,0,VALID,98.1539,VALID,0.0509425,VALID,20.2339,VALID,157,VALID,0.464504,
2008-12-18, 02:22:00,VALID,915.763,VALID,0,VALID,98.2798,VALID,0.0339617,VALID,20.2377,VALID,157,VALID,0.412791,
2008-12-18, 02:23:00,VALID,915.771,VALID,0,VALID,98.3128,VALID,0.0169808,VALID,20.2539,VALID,150,VALID,0.885298,
2008-12-18, 02:24:00,VALID,915.771,VALID,0,VALID,98.323,VALID,0,VALID,20.2801,VALID,179,VALID,0.560156,
2008-12-18, 02:25:00,VALID,915.764,VALID,0,VALID,98.3116,VALID,0.0509425,VALID,20.2691,VALID,165,VALID,0.0112179,
2008-12-18, 02:26:00,VALID,915.774,VALID,0,VALID,98.3484,VALID,0.0339617,VALID,20.2629,VALID,184,VALID,0,
2008-12-18, 02:27:00,VALID,915.776,VALID,0,VALID,98.3828,VALID,0,VALID,20.2599,VALID,176,VALID,0,
2008-12-18, 02:28:00,VALID,915.756,VALID,0,VALID,98.4324,VALID,0.0509425,VALID,20.2566,VALID,181,VALID,0,
2008-12-18, 02:29:00,VALID,915.769,VALID,0,VALID,98.487,VALID,0.0849042,VALID,20.2534,VALID,187,VALID,0,
2008-12-18, 02:30:00,VALID,915.763,VALID,0,VALID,98.5595,VALID,0.0339617,VALID,20.2637,VALID,161,VALID,0,
2008-12-18, 02:31:00,VALID,915.758,VALID,0,VALID,98.6117,VALID,0,VALID,20.2569,VALID,79,VALID,0,
2008-12-18, 02:32:00,VALID,915.771,VALID,0,VALID,98.6447,VALID,0.0169808,VALID,20.2469,VALID,91,VALID,0,
2008-12-18, 02:33:00,VALID,915.76,VALID,0,VALID,98.6307,VALID,0.0169808,VALID,20.2374,VALID,99,VALID,0.0634301,
2008-12-18, 02:34:00,VALID,915.756,VALID,0,VALID,98.6905,VALID,0,VALID,20.2077,VALID,89,VALID,0,
2008-12-18, 02:35:00,VALID,915.751,VALID,0,VALID,98.7592,VALID,0.0339617,VALID,20.1748,VALID,100,VALID,0.108445,
2008-12-18, 02:36:00,VALID,915.733,VALID,0,VALID,98.8927,VALID,0.0169808,VALID,20.1426,VALID,113,VALID,0.365473,
2008-12-18, 02:37:00,VALID,915.719,VALID,0,VALID,99.0745,VALID,0,VALID,20.1563,VALID,146,VALID,0.232599,
2008-12-18, 02:38:00,VALID,915.699,VALID,0,VALID,99.1737,VALID,0,VALID,20.1406,VALID,171,VALID,0.215402,
2008-12-18, 02:39:00,VALID,915.679,VALID,0,VALID,99.2742,VALID,-0.0339617,VALID,20.1471,VALID,156,VALID,0.205842,
2008-12-18, 02:40:00,VALID,915.665,VALID,0,VALID,99.3238,VALID,-0.0339617,VALID,20.1506,VALID,187,VALID,0,
2008-12-18, 02:41:00,VALID,915.661,VALID,0,VALID,99.3606,VALID,-0.0339617,VALID,20.1571,VALID,166,VALID,0,
2008-12-18, 02:42:00,VALID,915.643,VALID,0,VALID,99.3517,VALID,-0.0509425,VALID,20.1633,VALID,183,VALID,0.230646,
2008-12-18, 02:43:00,VALID,915.629,VALID,0,VALID,99.2831,VALID,-0.0169808,VALID,20.1666,VALID,185,VALID,0,
2008-12-18, 02:44:00,VALID,915.615,VALID,0,VALID,99.2335,VALID,-0.0339617,VALID,20.1863,VALID,183,VALID,0.00558036,
2008-12-18, 02:45:00,VALID,915.603,VALID,0,VALID,99.2258,VALID,0,VALID,20.18,VALID,191,VALID,0,
2008-12-18, 02:46:00,VALID,915.587,VALID,0,VALID,99.2042,VALID,-0.101885,VALID,20.1538,VALID,151,VALID,0.773438,
2008-12-18, 02:47:00,VALID,915.566,VALID,0,VALID,99.1648,VALID,-0.101885,VALID,20.1905,VALID,162,VALID,0.216463,
2008-12-18, 02:48:00,VALID,915.557,VALID,0,VALID,98.9728,VALID,-0.0679233,VALID,20.2125,VALID,162,VALID,0.00111607,
2008-12-18, 02:49:00,VALID,915.545,VALID,0,VALID,98.9016,VALID,-0.0339617,VALID,20.1895,VALID,149,VALID,0.0964753,
2008-12-18, 02:50:00,VALID,915.54,VALID,0,VALID,98.9614,VALID,-0.0679233,VALID,20.1671,VALID,140,VALID,0,
2008-12-18, 02:51:00,VALID,915.54,VALID,0,VALID,99.0059,VALID,-0.0169808,VALID,20.1409,VALID,131,VALID,0.00130208,
2008-12-18, 02:52:00,VALID,915.543,VALID,0,VALID,99.1228,VALID,-0.0169808,VALID,20.0982,VALID,156,VALID,0.177557,
2008-12-18, 02:53:00,VALID,915.536,VALID,0,VALID,99.1979,VALID,-0.0509425,VALID,20.0922,VALID,150,VALID,0.0463423,
2008-12-18, 02:54:00,VALID,915.543,VALID,0,VALID,99.2767,VALID,-0.0169808,VALID,20.063,VALID,139,VALID,0,
2008-12-18, 02:55:00,VALID,915.532,VALID,0,VALID,99.3263,VALID,-0.0339617,VALID,20.0375,VALID,139,VALID,0.10119,
2008-12-18, 02:56:00,VALID,915.546,VALID,0,VALID,99.4369,VALID,-0.0509425,VALID,20.0083,VALID,149,VALID,0,
2008-12-18, 02:57:00,VALID,915.53,VALID,0,VALID,99.587,VALID,-0.0679233,VALID,19.9853,VALID,151,VALID,0,
2008-12-18, 02:58:00,VALID,915.537,VALID,0,VALID,99.6442,VALID,-0.0679233,VALID,19.9821,VALID,131,VALID,0,
2008-12-18, 02:59:00,VALID,915.547,VALID,0,VALID,99.7052,VALID,-0.0679233,VALID,19.9561,VALID,141,VALID,0,
2008-12-18, 03:00:00,VALID,915.566,VALID,0,VALID,99.8489,VALID,-0.0849042,VALID,19.9566,VALID,155,VALID,0,
2008-12-18, 03:01:00,VALID,915.571,VALID,0,VALID,99.9392,VALID,-0.0679233,VALID,19.9339,VALID,161,VALID,0.150618,
2008-12-18, 03:02:00,VALID,915.579,VALID,0,VALID,100,VALID,-0.0679233,VALID,19.9135,VALID,144,VALID,0.394622,
2008-12-18, 03:03:00,VALID,915.587,VALID,0,VALID,100,VALID,-0.0509425,VALID,19.8845,VALID,170,VALID,0.0221354,
2008-12-18, 03:04:00,VALID,915.599,VALID,0,VALID,100,VALID,-0.0679233,VALID,19.8555,VALID,183,VALID,0.0752668,
2008-12-18, 03:05:00,VALID,915.608,VALID,0,VALID,100,VALID,-0.0679233,VALID,19.8401,VALID,183,VALID,0,
2008-12-18, 03:06:00,VALID,915.613,VALID,0,VALID,100,VALID,-0.0169808,VALID,19.8064,VALID,183,VALID,0,
2008-12-18, 03:07:00,VALID,915.62,VALID,0,VALID,100,VALID,-0.0679233,VALID,19.7869,VALID,183,VALID,0,
2008-12-18, 03:08:00,VALID,915.624,VALID,0,VALID,100,VALID,-0.0509425,VALID,19.7814,VALID,183,VALID,0,
2008-12-18, 03:09:00,VALID,915.618,VALID,0,VALID,100,VALID,-0.0509425,VALID,19.7515,VALID,183,VALID,0,
2008-12-18, 03:10:00,VALID,915.61,VALID,0,VALID,100,VALID,-0.0679233,VALID,19.739,VALID,183,VALID,0,
2008-12-18, 03:11:00,VALID,915.602,VALID,0,VALID,100,VALID,-0.0679233,VALID,19.706,VALID,194,VALID,0.0865234,
2008-12-18, 03:12:00,VALID,915.604,VALID,0,VALID,100,VALID,-0.0509425,VALID,19.6863,VALID,192,VALID,0,
2008-12-18, 03:13:00,VALID,915.603,VALID,0,VALID,100,VALID,-0.0849042,VALID,19.6601,VALID,198,VALID,0,
2008-12-18, 03:14:00,VALID,915.611,VALID,0,VALID,100,VALID,-0.0169808,VALID,19.6344,VALID,190,VALID,0,
2008-12-18, 03:15:00,VALID,915.619,VALID,0,VALID,100,VALID,-0.0509425,VALID,19.6154,VALID,190,VALID,0,
2008-12-18, 03:16:00,VALID,915.617,VALID,0,VALID,100,VALID,-0.0509425,VALID,19.5825,VALID,190,VALID,0,
2008-12-18, 03:17:00,VALID,915.622,VALID,0,VALID,100,VALID,-0.0679233,VALID,19.58,VALID,185,VALID,0,
2008-12-18, 03:18:00,VALID,915.623,VALID,0,VALID,100,VALID,-0.0679233,VALID,19.5633,VALID,185,VALID,0,
2008-12-18, 03:19:00,VALID,915.634,VALID,0,VALID,100,VALID,-0.0339617,VALID,19.5371,VALID,184,VALID,0,
2008-12-18, 03:20:00,VALID,915.634,VALID,0,VALID,100,VALID,-0.0339617,VALID,19.5179,VALID,170,VALID,0,
2008-12-18, 03:21:00,VALID,915.639,VALID,0,VALID,100,VALID,0,VALID,19.4984,VALID,110,VALID,0,
2008-12-18, 03:22:00,VALID,915.64,VALID,0,VALID,100,VALID,-0.0509425,VALID,19.4627,VALID,124,VALID,0.0519622,
2008-12-18, 03:23:00,VALID,915.638,VALID,0,VALID,100,VALID,-0.0679233,VALID,19.453,VALID,131,VALID,0.176953,
2008-12-18, 03:24:00,VALID,915.634,VALID,0,VALID,100,VALID,-0.0339617,VALID,19.4041,VALID,115,VALID,0.0384909,
2008-12-18, 03:25:00,VALID,915.614,VALID,0,VALID,100,VALID,-0.0509425,VALID,19.3983,VALID,149,VALID,0.0475694,
2008-12-18, 03:26:00,VALID,915.617,VALID,0,VALID,100,VALID,-0.0339617,VALID,19.3716,VALID,142,VALID,0.164789,
2008-12-18, 03:27:00,VALID,915.6,VALID,0,VALID,100,VALID,-0.0509425,VALID,19.3916,VALID,160,VALID,0.284091,
2008-12-18, 03:28:00,VALID,915.601,VALID,0,VALID,100,VALID,-0.0509425,VALID,19.4078,VALID,157,VALID,0,
2008-12-18, 03:29:00,VALID,915.603,VALID,0,VALID,100,VALID,-0.0679233,VALID,19.3881,VALID,141,VALID,0.101953,
2008-12-18, 03:30:00,VALID,915.624,VALID,0,VALID,100,VALID,-0.0679233,VALID,19.411,VALID,149,VALID,0.0577363,
2008-12-18, 03:31:00,VALID,915.639,VALID,0,VALID,100,VALID,-0.0679233,VALID,19.4203,VALID,156,VALID,0.305618,
2008-12-18, 03:32:00,VALID,915.648,VALID,0,VALID,100,VALID,-0.0679233,VALID,19.4303,VALID,149,VALID,0.242361,
2008-12-18, 03:33:00,VALID,915.645,VALID,0,VALID,100,VALID,-0.0849042,VALID,19.424,VALID,134,VALID,0.143714,
2008-12-18, 03:34:00,VALID,915.632,VALID,0,VALID,100,VALID,-0.0169808,VALID,19.4235,VALID,139,VALID,0.161659,
2008-12-18, 03:35:00,VALID,915.637,VALID,0,VALID,100,VALID,0,VALID,19.43,VALID,151,VALID,0.629616,